Location: Newark
(54.6833°N, 25.2833°E)
Time: 01:22:00
(UTC+00:00)

A-11 Canister half - Pass Details

Date: 28 January 2021
Orbit: 1525 x 1684 km, 47.3° (Epoch: 05 March)

Event Time Altitude Azimuth Distance (km) Brightness Sun altitude
Rises 17:12:10 0° 280° (W) 4,723 13.0 -20.4°
Reaches altitude 10° 17:15:28 10° 273° (W) 3,757 12.2 -20.9°
Maximum altitude 17:23:54 38° 210° (SSW) 2,283 10.1 -22.1°
Drops below altitude 10° 17:32:35 10° 148° (SSE) 3,860 10.8 -23.3°
Enters shadow 17:33:00 - 146° (SSE) 3,976 10.8 -23.4°
